Voltar ao catálogo

SL-12 R/B(2)

AtivoGEO
NORAD 14394·ROCKET BODY·🇷🇺 Russia

Lançado Sep 29, 1983 de Baikonur Cosmodrome

Loading…

TLE

AtualizadoSource: Space-Track

Época: Sep 14, 2026, 18:09 UTC

1 14394U 83100F   26257.75690086  .00000091  00000-0  00000-0 0  9996
2 14394   7.0567 302.0012 0018660 165.0861 356.9191  1.01049576157925

Acompanhe SL-12 R/B(2) em tempo real com AllMySat

Download on the App Store